Change the Weather History Date:

Thursday, November 7, 2013

  Actual Average Record
Temperature  
Mean Temperature 32 °F -  
Max Temperature 37 °F 38 °F 58 °F (1979)
Min Temperature 28 °F 28 °F 8 °F (1956)
Degree Days  
Heating Degree Days 32    
Moisture  
Dew Point 30 °F    
Average Humidity 83    
Maximum Humidity 92    
Minimum Humidity 67    
Precipitation  
Precipitation 0.00 in - - ()
Sea Level Pressure  
Sea Level Pressure 29.78 in    
Wind  
Wind Speed 3 mph (North)    
Max Wind Speed 20 mph    
Max Gust Speed 30 mph    
Visibility 10 miles    
Events Snow    
Averages and records for this station are not official NWS values.
T = Trace of Precipitation, MM = Missing Value Source: NWS Daily Summary

Daily Weather History Graph

Daily Weather History Graph

Search for Another Location

Airport or City:

Trip Planner

Search our weather history database for the weather conditions in past years. The results will help you decide how hot, cold, wet, or windy it might be!

Date:

Astronomy

Nov. 07, 2013 Rise Set
Actual Time 8:37 AM AKST 4:44 PM AKST
Civil Twilight 7:50 AM AKST 5:31 PM AKST
Nautical Twilight 6:59 AM AKST 6:22 PM AKST
Astronomical Twilight 6:10 AM AKST 7:10 PM AKST
Moon 1:07 PM AKST (11/7) 8:57 PM AKST (11/7)
Length of Visible Light 9h 41m
Length of Day
8h 07m
Waxing Crescent, 24% of the Moon is Illuminated
Nov 7
Waxing Crescent
Nov 9
First Quarter
Nov 17
Full
Nov 25
Last Quarter
Dec 2
New

Hourly Weather History & Observations

Time (AKST) Temp. Windchill Dew Point Humidity Pressure Visibility Wind Dir Wind Speed Gust Speed Precip Events Conditions
12:53 AM 30.0 °F - 24.1 °F 79% 29.90 in 10.0 mi Calm Calm - N/A   Clear
1:53 AM 28.9 °F - 24.1 °F 82% 29.88 in 10.0 mi Calm Calm - N/A   Clear
2:53 AM 30.0 °F - 26.1 °F 85% 29.87 in 10.0 mi Calm Calm - N/A   Overcast
3:53 AM 32.0 °F - 27.0 °F 82% 29.86 in 9.0 mi Calm Calm - 0.00 in Snow Light Snow
4:53 AM 33.1 °F 30.0 °F 28.0 °F 82% 29.84 in 10.0 mi North 3.5 mph - N/A   Overcast
5:53 AM 33.1 °F 30.0 °F 30.0 °F 89% 29.82 in 10.0 mi NNE 3.5 mph - 0.00 in   Overcast
6:53 AM 33.1 °F - 30.0 °F 89% 29.81 in 10.0 mi Calm Calm - 0.00 in   Overcast
7:53 AM 33.1 °F 28.7 °F 30.0 °F 89% 29.80 in 10.0 mi North 4.6 mph - N/A   Overcast
8:53 AM 33.1 °F - 30.9 °F 92% 29.78 in 10.0 mi Calm Calm - 0.00 in   Overcast
9:53 AM 34.0 °F - 32.0 °F 92% 29.77 in 10.0 mi Calm Calm - 0.00 in   Overcast
10:53 AM 35.1 °F - 33.1 °F 92% 29.77 in 10.0 mi Calm Calm - 0.00 in   Overcast
11:38 AM 37.4 °F - 33.8 °F 87% 29.76 in 10.0 mi Calm Calm - N/A   Overcast
11:53 AM 37.0 °F - 34.0 °F 89% 29.76 in 10.0 mi Calm Calm - N/A   Overcast
12:53 PM 37.0 °F 34.5 °F 33.1 °F 86% 29.76 in 10.0 mi North 3.5 mph - N/A   Overcast
1:53 PM 37.9 °F 34.4 °F 34.0 °F 86% 29.74 in 10.0 mi North 4.6 mph - N/A   Overcast
2:53 PM 37.9 °F 34.4 °F 33.1 °F 83% 29.73 in 10.0 mi North 4.6 mph - N/A   Overcast
3:53 PM 37.9 °F 34.4 °F 33.1 °F 83% 29.73 in 10.0 mi NNW 4.6 mph - N/A   Overcast
4:53 PM 37.9 °F 34.4 °F 33.1 °F 83% 29.73 in 10.0 mi North 4.6 mph - N/A   Overcast
5:53 PM 37.9 °F 32.1 °F 33.1 °F 83% 29.73 in 10.0 mi North 8.1 mph - N/A   Overcast
6:53 PM 37.0 °F 29.8 °F 32.0 °F 82% 29.73 in 10.0 mi North 10.4 mph - N/A   Overcast
7:53 PM 37.0 °F 29.3 °F 30.0 °F 76% 29.74 in 10.0 mi North 11.5 mph - N/A   Overcast
8:53 PM 35.1 °F 26.4 °F 28.9 °F 78% 29.75 in 10.0 mi NNE 12.7 mph 19.6 mph N/A   Overcast
9:53 PM 35.1 °F 25.2 °F 27.0 °F 72% 29.76 in 10.0 mi North 16.1 mph 21.9 mph N/A   Overcast
10:53 PM 34.0 °F 23.4 °F 26.1 °F 73% 29.78 in 10.0 mi North 17.3 mph 25.3 mph N/A   Partly Cloudy
11:53 PM 36.0 °F 25.3 °F 26.1 °F 67% 29.80 in 10.0 mi North 19.6 mph 29.9 mph N/A   Overcast